When you browse on this site, cookies collect data to enhance your experience and personalize the content and advertising you see.
Visit our Privacy Policy to learn more. By continuing to use the site, you agree to this use of cookies and data.
  • In Hungary
  • List of Countries
  • For 7 days
  • Water Temperature
  • Satellite Maps
  • Weather Map
  • News
  • Weather Widgets
  • user-avatar
    Login

    Hourly Weather Kvasyliv

    Today, 19 February, Tuesday

    Time Temperature Precipitation Wind Pressure Humidity
    00:00 +2°C° 0 mm 2 mps 750 mmHg 90%
    01:00 +2°C° 0 mm 2 mps 750 mmHg 91%
    02:00 +2°C° 0 mm 2 mps 750 mmHg 94%
    03:00 +2°C° 0 mm 2 mps 749 mmHg 93%
    04:00 +2°C° 0 mm 2 mps 749 mmHg 93%
    05:00 +1°C° 0 mm 3 mps 749 mmHg 92%
    06:00 +1°C° 0 mm 3 mps 748 mmHg 92%
    07:00 +1°C° 0 mm 3 mps 748 mmHg 92%
    08:00 0°C° 0 mm 3 mps 748 mmHg 91%
    09:00 +1°C° 0 mm 4 mps 748 mmHg 86%
    10:00 +2°C° 0 mm 5 mps 747 mmHg 81%
    11:00 +5°C° 0 mm 5 mps 747 mmHg 76%
    12:00 +6°C° 0 mm 5 mps 747 mmHg 72%
    13:00 +7°C° 0 mm 5 mps 746 mmHg 69%
    14:00 +8°C° 0 mm 5 mps 746 mmHg 66%
    15:00 +8°C° 0 mm 4 mps 745 mmHg 68%
    16:00 +7°C° 0 mm 4 mps 745 mmHg 70%
    17:00 +7°C° 0 mm 4 mps 744 mmHg 72%
    18:00 +6°C° 0 mm 4 mps 744 mmHg 75%
    19:00 +5°C° 0 mm 4 mps 744 mmHg 78%
    20:00 +4°C° 0 mm 4 mps 744 mmHg 82%
    21:00 +4°C° 0 mm 4 mps 743 mmHg 82%
    22:00 +4°C° 0 mm 4 mps 743 mmHg 82%
    23:00 +3°C° 0 mm 4 mps 743 mmHg 82%

    Tomorrow, 20 February, Wednesday

    Time Temperature Precipitation Wind Pressure Humidity
    00:00 +3°C° 0 mm 4 mps 743 mmHg 84%
    01:00 +3°C° 0 mm 4 mps 743 mmHg 86%
    02:00 +1°C° 0 mm 5 mps 743 mmHg 89%
    03:00 +1°C° 0 mm 5 mps 743 mmHg 90%
    04:00 +1°C° 0 mm 4 mps 743 mmHg 90%
    05:00 +1°C° 0 mm 4 mps 743 mmHg 91%
    06:00 +1°C° 0.4 mm 5 mps 743 mmHg 92%
    07:00 +2°C° 0.4 mm 5 mps 743 mmHg 93%
    08:00 +2°C° 0.4 mm 5 mps 743 mmHg 94%
    09:00 +2°C° 0 mm 5 mps 743 mmHg 90%
    10:00 +3°C° 0 mm 6 mps 744 mmHg 86%
    11:00 +3°C° 0 mm 7 mps 744 mmHg 82%
    12:00 +3°C° 0.1 mm 7 mps 744 mmHg 79%
    13:00 +3°C° 0.1 mm 7 mps 744 mmHg 75%
    14:00 +3°C° 0.1 mm 7 mps 744 mmHg 72%
    15:00 +3°C° 0 mm 7 mps 744 mmHg 70%
    16:00 +3°C° 0 mm 6 mps 744 mmHg 69%
    17:00 +3°C° 0 mm 6 mps 745 mmHg 67%
    18:00 +3°C° 0 mm 6 mps 745 mmHg 70%
    19:00 +2°C° 0 mm 6 mps 745 mmHg 73%
    20:00 +2°C° 0 mm 6 mps 745 mmHg 76%
    21:00 +2°C° 0 mm 6 mps 745 mmHg 76%
    22:00 +2°C° 0 mm 6 mps 745 mmHg 77%
    23:00 +1°C° 0 mm 6 mps 745 mmHg 77%

    Day after tomorrow, 21 February, Thursday

    Time Temperature Precipitation Wind Pressure Humidity
    00:00 +1°C° 0 mm 6 mps 745 mmHg 78%
    01:00 +1°C° 0 mm 6 mps 746 mmHg 80%
    02:00 0°C° 0 mm 7 mps 746 mmHg 81%
    03:00 +1°C° 0 mm 6 mps 746 mmHg 81%
    04:00 +1°C° 0 mm 6 mps 746 mmHg 81%
    05:00 +1°C° 0 mm 6 mps 746 mmHg 81%
    06:00 -1°C° 0 mm 6 mps 746 mmHg 82%
    07:00 -1°C° 0 mm 6 mps 747 mmHg 84%
    08:00 0°C° 0 mm 5 mps 747 mmHg 86%
    09:00 -1°C° 0 mm 6 mps 747 mmHg 81%
    10:00 +1°C° 0 mm 6 mps 747 mmHg 77%
    11:00 0°C° 0 mm 7 mps 747 mmHg 72%
    12:00 +2°C° 0 mm 7 mps 747 mmHg 71%
    13:00 +2°C° 0 mm 6 mps 747 mmHg 71%
    14:00 +3°C° 0 mm 6 mps 746 mmHg 70%
    15:00 +2°C° 0.2 mm 5 mps 746 mmHg 75%
    16:00 +3°C° 0.2 mm 4 mps 746 mmHg 80%
    17:00 +4°C° 0.2 mm 2 mps 746 mmHg 86%
    18:00 +4°C° 0.7 mm 2 mps 746 mmHg 87%
    19:00 +3°C° 0.7 mm 2 mps 745 mmHg 89%
    20:00 +4°C° 0.7 mm 1 mps 745 mmHg 91%
    21:00 +3°C° 0.4 mm 2 mps 745 mmHg 92%
    22:00 +2°C° 0.4 mm 2 mps 745 mmHg 92%
    23:00 +2°C° 0.4 mm 2 mps 745 mmHg 93%

    22 February, Friday

    Time Temperature Precipitation Wind Pressure Humidity
    00:00 0°C° 0.4 mm 3 mps 745 mmHg 93%
    01:00 -2°C° 0.4 mm 4 mps 745 mmHg 92%
    02:00 -2°C° 0.4 mm 4 mps 745 mmHg 92%
    03:00 -4°C° 0.5 mm 5 mps 745 mmHg 91%
    04:00 -5°C° 0.5 mm 5 mps 745 mmHg 91%
    05:00 -5°C° 0.5 mm 5 mps 745 mmHg 90%
    06:00 -6°C° 0.3 mm 6 mps 746 mmHg 87%
    07:00 -6°C° 0.3 mm 6 mps 747 mmHg 84%
    08:00 -6°C° 0.3 mm 6 mps 748 mmHg 81%
    09:00 -6°C° 0 mm 6 mps 749 mmHg 75%
    10:00 -7°C° 0 mm 7 mps 750 mmHg 70%
    11:00 -8°C° 0 mm 7 mps 752 mmHg 65%
    12:00 -8°C° 0 mm 7 mps 752 mmHg 62%
    13:00 -8°C° 0 mm 7 mps 753 mmHg 59%
    14:00 -8°C° 0 mm 7 mps 754 mmHg 56%
    15:00 -8°C° 0 mm 6 mps 754 mmHg 56%
    16:00 -8°C° 0 mm 6 mps 755 mmHg 57%
    17:00 -9°C° 0 mm 6 mps 755 mmHg 57%
    18:00 -8°C° 0 mm 5 mps 756 mmHg 59%
    19:00 -8°C° 0 mm 5 mps 756 mmHg 60%
    20:00 -10°C° 0 mm 5 mps 757 mmHg 62%
    21:00 -10°C° 0 mm 5 mps 757 mmHg 62%
    22:00 -9°C° 0 mm 4 mps 757 mmHg 62%
    23:00 -9°C° 0 mm 4 mps 757 mmHg 62%

    23 February, Saturday

    Time Temperature Precipitation Wind Pressure Humidity
    00:00 -9°C° 0 mm 4 mps 757 mmHg 63%
    01:00 -9°C° 0 mm 4 mps 758 mmHg 64%
    02:00 -9°C° 0 mm 4 mps 758 mmHg 64%
    03:00 -9°C° 0 mm 4 mps 758 mmHg 66%
    04:00 -9°C° 0 mm 4 mps 757 mmHg 67%
    05:00 -10°C° 0 mm 4 mps 757 mmHg 69%
    06:00 -10°C° 0 mm 4 mps 758 mmHg 70%
    07:00 -10°C° 0 mm 4 mps 758 mmHg 71%
    08:00 -10°C° 0 mm 4 mps 758 mmHg 72%
    09:00 -9°C° 0 mm 4 mps 758 mmHg 68%
    10:00 -10°C° 0 mm 5 mps 759 mmHg 65%
    11:00 -8°C° 0 mm 5 mps 759 mmHg 61%
    12:00 -8°C° 0 mm 4 mps 759 mmHg 58%
    13:00 -7°C° 0 mm 4 mps 758 mmHg 56%
    14:00 -7°C° 0 mm 4 mps 758 mmHg 53%
    15:00 -7°C° 0 mm 4 mps 758 mmHg 55%
    16:00 -7°C° 0 mm 4 mps 758 mmHg 57%
    17:00 -7°C° 0 mm 4 mps 757 mmHg 58%
    18:00 -6°C° 0 mm 3 mps 757 mmHg 61%
    19:00 -7°C° 0 mm 3 mps 757 mmHg 64%
    20:00 -6°C° 0 mm 2 mps 757 mmHg 66%
    21:00 -6°C° 0 mm 2 mps 757 mmHg 68%
    22:00 -6°C° 0 mm 2 mps 757 mmHg 69%
    23:00 -6°C° 0 mm 2 mps 757 mmHg 70%

    24 February, Sunday

    Time Temperature Precipitation Wind Pressure Humidity
    00:00 -6°C° 0 mm 2 mps 756 mmHg 70%
    01:00 -6°C° 0 mm 2 mps 756 mmHg 70%
    02:00 -6°C° 0 mm 2 mps 756 mmHg 70%
    03:00 -6°C° 0 mm 2 mps 756 mmHg 70%
    04:00 -6°C° 0 mm 2 mps 756 mmHg 70%
    05:00 -6°C° 0 mm 2 mps 756 mmHg 71%
    06:00 -6°C° 0 mm 2 mps 756 mmHg 71%
    07:00 -6°C° 0 mm 2 mps 756 mmHg 72%
    08:00 -6°C° 0 mm 2 mps 757 mmHg 72%
    09:00 -5°C° 0 mm 2 mps 757 mmHg 67%
    10:00 -4°C° 0 mm 2 mps 757 mmHg 61%
    11:00 -4°C° 0 mm 2 mps 757 mmHg 55%
    12:00 -3°C° 0 mm 2 mps 757 mmHg 55%
    13:00 -4°C° 0 mm 3 mps 757 mmHg 56%
    14:00 -2°C° 0 mm 3 mps 757 mmHg 57%
    15:00 -2°C° 0 mm 3 mps 757 mmHg 61%
    16:00 -2°C° 0 mm 3 mps 757 mmHg 64%
    17:00 -4°C° 0 mm 3 mps 757 mmHg 68%
    18:00 -4°C° 0 mm 3 mps 757 mmHg 71%
    19:00 -4°C° 0 mm 3 mps 757 mmHg 74%
    20:00 -4°C° 0 mm 3 mps 757 mmHg 77%
    21:00 -3°C° 0 mm 2 mps 758 mmHg 79%
    22:00 -3°C° 0 mm 2 mps 758 mmHg 80%
    23:00 -3°C° 0 mm 2 mps 758 mmHg 82%
    Show more